• en France
  • Liste des pays
  • À 7 jours
  • Température de l'eau
  • Carte satellitaire
  • Carte météo
  • Widgets météo
  • user-avatar
    Se connecter

    Météo par heure à Krasnye Lipyagi

    Ce jour, 21 Septembre, Vendredi

    Heure Température Précipitation Vent Pression Humidité
    00:00 +14°C° 0 mm 2 m/s 750 mmHg 90%
    01:00 +14°C° 0 mm 2 m/s 750 mmHg 90%
    02:00 +14°C° 0 mm 2 m/s 750 mmHg 90%
    03:00 +13°C° 0 mm 2 m/s 751 mmHg 91%
    04:00 +13°C° 0 mm 2 m/s 751 mmHg 91%
    05:00 +13°C° 0 mm 1 m/s 751 mmHg 91%
    06:00 +13°C° 0 mm 1 m/s 752 mmHg 91%
    07:00 +15°C° 0 mm 2 m/s 752 mmHg 85%
    08:00 +16°C° 0 mm 2 m/s 752 mmHg 79%
    09:00 +18°C° 0 mm 2 m/s 752 mmHg 72%
    10:00 +19°C° 0 mm 2 m/s 753 mmHg 68%
    11:00 +21°C° 0 mm 2 m/s 753 mmHg 63%
    12:00 +23°C° 0 mm 2 m/s 753 mmHg 58%
    13:00 +24°C° 0 mm 2 m/s 753 mmHg 56%
    14:00 +24°C° 0 mm 2 m/s 753 mmHg 53%
    15:00 +25°C° 0 mm 2 m/s 753 mmHg 51%
    16:00 +24°C° 0 mm 1 m/s 753 mmHg 56%
    17:00 +23°C° 0 mm 1 m/s 753 mmHg 61%
    18:00 +21°C° 0 mm 1 m/s 753 mmHg 65%
    19:00 +21°C° 0 mm 1 m/s 753 mmHg 68%
    20:00 +20°C° 0 mm 1 m/s 753 mmHg 71%
    21:00 +19°C° 0 mm 1 m/s 753 mmHg 74%
    22:00 +19°C° 0 mm 1 m/s 753 mmHg 76%
    23:00 +17°C° 0 mm 2 m/s 753 mmHg 78%

    Demain, 22 Septembre, Samedi

    Heure Température Précipitation Vent Pression Humidité
    00:00 +17°C° 0 mm 2 m/s 753 mmHg 80%
    01:00 +16°C° 0 mm 2 m/s 753 mmHg 81%
    02:00 +16°C° 0 mm 2 m/s 753 mmHg 83%
    03:00 +16°C° 0 mm 2 m/s 753 mmHg 85%
    04:00 +15°C° 0 mm 2 m/s 753 mmHg 86%
    05:00 +15°C° 0 mm 2 m/s 753 mmHg 87%
    06:00 +14°C° 0 mm 3 m/s 753 mmHg 88%
    07:00 +16°C° 0 mm 3 m/s 753 mmHg 82%
    08:00 +18°C° 0 mm 3 m/s 753 mmHg 75%
    09:00 +19°C° 0 mm 4 m/s 753 mmHg 69%
    10:00 +21°C° 0 mm 4 m/s 753 mmHg 64%
    11:00 +22°C° 0 mm 4 m/s 753 mmHg 58%
    12:00 +25°C° 0 mm 4 m/s 752 mmHg 53%
    13:00 +25°C° 0 mm 4 m/s 752 mmHg 52%
    14:00 +26°C° 0 mm 5 m/s 752 mmHg 51%
    15:00 +26°C° 0 mm 5 m/s 752 mmHg 49%
    16:00 +25°C° 0 mm 4 m/s 751 mmHg 54%
    17:00 +22°C° 0 mm 4 m/s 751 mmHg 60%
    18:00 +21°C° 0 mm 3 m/s 751 mmHg 65%
    19:00 +20°C° 0 mm 3 m/s 751 mmHg 66%
    20:00 +20°C° 0 mm 4 m/s 751 mmHg 66%
    21:00 +19°C° 0 mm 4 m/s 751 mmHg 67%
    22:00 +19°C° 0 mm 4 m/s 750 mmHg 67%
    23:00 +18°C° 0 mm 4 m/s 750 mmHg 67%

    Après-demain, 23 Septembre, Dimanche

    Heure Température Précipitation Vent Pression Humidité
    00:00 +18°C° 0 mm 4 m/s 750 mmHg 66%
    01:00 +17°C° 0 mm 5 m/s 749 mmHg 67%
    02:00 +16°C° 0 mm 5 m/s 749 mmHg 68%
    03:00 +16°C° 0 mm 5 m/s 748 mmHg 69%
    04:00 +16°C° 0 mm 5 m/s 748 mmHg 69%
    05:00 +15°C° 0 mm 5 m/s 747 mmHg 70%
    06:00 +15°C° 0 mm 5 m/s 747 mmHg 70%
    07:00 +16°C° 0 mm 6 m/s 746 mmHg 67%
    08:00 +17°C° 0 mm 6 m/s 746 mmHg 64%
    09:00 +18°C° 0 mm 7 m/s 745 mmHg 60%
    10:00 +21°C° 0 mm 7 m/s 745 mmHg 56%
    11:00 +22°C° 0 mm 8 m/s 745 mmHg 52%
    12:00 +24°C° 0 mm 8 m/s 744 mmHg 48%
    13:00 +22°C° 0.1 mm 8 m/s 744 mmHg 52%
    14:00 +21°C° 0.1 mm 7 m/s 744 mmHg 57%
    15:00 +20°C° 0.1 mm 7 m/s 744 mmHg 61%
    16:00 +16°C° 0.5 mm 6 m/s 744 mmHg 68%
    17:00 +14°C° 0.5 mm 6 m/s 744 mmHg 75%
    18:00 +10°C° 0.5 mm 6 m/s 744 mmHg 82%
    19:00 +10°C° 0.8 mm 5 m/s 744 mmHg 83%
    20:00 +9°C° 0.8 mm 5 m/s 744 mmHg 85%
    21:00 +9°C° 0.8 mm 5 m/s 745 mmHg 87%
    22:00 +9°C° 2.2 mm 5 m/s 745 mmHg 87%
    23:00 +10°C° 2.2 mm 4 m/s 745 mmHg 88%

    24 Septembre, Lundi

    Heure Température Précipitation Vent Pression Humidité
    00:00 +10°C° 2.2 mm 4 m/s 745 mmHg 89%
    01:00 +10°C° 0.4 mm 4 m/s 745 mmHg 89%
    02:00 +10°C° 0.4 mm 4 m/s 745 mmHg 88%
    03:00 +10°C° 0.4 mm 4 m/s 745 mmHg 88%
    04:00 +8°C° 0 mm 4 m/s 745 mmHg 90%
    05:00 +7°C° 0 mm 4 m/s 745 mmHg 91%
    06:00 +8°C° 0 mm 3 m/s 745 mmHg 93%
    07:00 +8°C° 0 mm 4 m/s 745 mmHg 88%
    08:00 +10°C° 0 mm 4 m/s 745 mmHg 84%
    09:00 +11°C° 0 mm 4 m/s 746 mmHg 80%
    10:00 +12°C° 0 mm 4 m/s 745 mmHg 72%
    11:00 +13°C° 0 mm 4 m/s 745 mmHg 64%
    12:00 +14°C° 0 mm 4 m/s 745 mmHg 56%
    13:00 +15°C° 0 mm 4 m/s 745 mmHg 55%
    14:00 +15°C° 0 mm 4 m/s 745 mmHg 54%
    15:00 +15°C° 0 mm 4 m/s 745 mmHg 53%
    16:00 +14°C° 0 mm 3 m/s 745 mmHg 57%
    17:00 +13°C° 0 mm 3 m/s 744 mmHg 61%
    18:00 +13°C° 0 mm 2 m/s 744 mmHg 66%
    19:00 +12°C° 0.1 mm 3 m/s 743 mmHg 66%
    20:00 +12°C° 0.1 mm 3 m/s 743 mmHg 67%
    21:00 +12°C° 0.1 mm 4 m/s 743 mmHg 68%
    22:00 +10°C° 0.8 mm 5 m/s 742 mmHg 72%
    23:00 +10°C° 0.8 mm 7 m/s 740 mmHg 77%

    25 Septembre, Mardi

    Heure Température Précipitation Vent Pression Humidité
    00:00 +10°C° 0.8 mm 8 m/s 739 mmHg 81%
    01:00 +10°C° 0.8 mm 8 m/s 738 mmHg 82%
    02:00 +10°C° 0.8 mm 9 m/s 737 mmHg 83%
    03:00 +9°C° 0.8 mm 10 m/s 736 mmHg 85%
    04:00 +10°C° 0.2 mm 9 m/s 735 mmHg 83%
    05:00 +10°C° 0.2 mm 9 m/s 734 mmHg 81%
    06:00 +10°C° 0.2 mm 8 m/s 733 mmHg 79%
    07:00 +8°C° 0.1 mm 9 m/s 733 mmHg 79%
    08:00 +8°C° 0.1 mm 9 m/s 733 mmHg 78%
    09:00 +8°C° 0.1 mm 9 m/s 732 mmHg 78%
    10:00 +8°C° 0.2 mm 9 m/s 732 mmHg 77%
    11:00 +8°C° 0.2 mm 9 m/s 732 mmHg 77%
    12:00 +8°C° 0.2 mm 9 m/s 732 mmHg 77%
    13:00 +8°C° 0.2 mm 9 m/s 732 mmHg 78%
    14:00 +8°C° 0.2 mm 9 m/s 732 mmHg 79%
    15:00 +8°C° 0.2 mm 9 m/s 732 mmHg 80%
    16:00 +9°C° 0.4 mm 8 m/s 733 mmHg 82%
    17:00 +9°C° 0.4 mm 8 m/s 733 mmHg 84%
    18:00 +8°C° 0.4 mm 7 m/s 733 mmHg 86%
    19:00 +8°C° 0.3 mm 7 m/s 734 mmHg 86%
    20:00 +8°C° 0.3 mm 7 m/s 734 mmHg 85%
    21:00 +8°C° 0.3 mm 7 m/s 735 mmHg 85%
    22:00 +7°C° 0.4 mm 8 m/s 735 mmHg 85%
    23:00 +7°C° 0.4 mm 8 m/s 736 mmHg 85%

    26 Septembre, Mercredi

    Heure Température Précipitation Vent Pression Humidité
    00:00 +6°C° 0.4 mm 8 m/s 737 mmHg 85%
    01:00 +6°C° 0.2 mm 8 m/s 738 mmHg 84%
    02:00 +6°C° 0.2 mm 8 m/s 739 mmHg 83%
    03:00 +6°C° 0.2 mm 8 m/s 739 mmHg 83%
    04:00 +6°C° 0.1 mm 8 m/s 740 mmHg 83%
    05:00 +5°C° 0.1 mm 8 m/s 741 mmHg 82%
    06:00 +5°C° 0.1 mm 8 m/s 742 mmHg 82%
    07:00 +5°C° 0.1 mm 8 m/s 742 mmHg 81%
    08:00 +5°C° 0.1 mm 7 m/s 743 mmHg 79%
    09:00 +5°C° 0.1 mm 7 m/s 744 mmHg 77%
    10:00 +5°C° 0 mm 7 m/s 744 mmHg 75%
    11:00 +5°C° 0 mm 7 m/s 745 mmHg 73%
    12:00 +5°C° 0 mm 6 m/s 746 mmHg 72%
    13:00 +5°C° 0 mm 6 m/s 746 mmHg 70%
    14:00 +5°C° 0 mm 6 m/s 746 mmHg 69%
    15:00 +6°C° 0 mm 5 m/s 746 mmHg 67%
    16:00 +6°C° 0 mm 4 m/s 746 mmHg 68%
    17:00 +7°C° 0 mm 3 m/s 747 mmHg 69%
    18:00 +7°C° 0 mm 2 m/s 747 mmHg 69%
    19:00 +6°C° 0 mm 2 m/s 747 mmHg 71%
    20:00 +6°C° 0 mm 2 m/s 747 mmHg 72%
    21:00 +5°C° 0 mm 2 m/s 747 mmHg 74%
    22:00 +5°C° 0.1 mm 2 m/s 747 mmHg 75%
    23:00 +5°C° 0.1 mm 2 m/s 747 mmHg 77%
    Voir plus